Wind_Speed
30 30 30 30 29 28 28 28 28 28 29 30 31 32 33 34 34 35 35 35 35 35 35 35 35 35 36 36 36 36 36 37 37 36 35 34 34 33 32 31 30 29 29
31 32 33 33 33 33 32 32 31 31 31 31 31 31 32 33 33 34 35 35 36 36 36 36 37 37 37 38 38 38 39 39 39 39 38 38 37 36 35 35 34 33 33
31 32 33 34 36 36 36 35 35 34 34 34 33 32 32 33 33 34 35 36 36 37 37 37 37 37 37 38 38 39 40 41 41 41 41 40 39 39 38 38 37 37 37
33 33 34 35 37 37 37 38 37 37 37 37 36 35 34 34 34 35 36 37 38 39 39 38 38 37 37 37 37 38 39 40 41 42 42 42 42 41 41 41 40 40 40
37 36 37 38 39 39 39 39 38 39 40 40 39 38 37 36 36 36 37 38 39 40 40 39 38 38 37 37 37 38 38 39 40 40 41 42 42 42 42 43 43 43 43
40 41 40 41 41 40 40 40 40 41 41 41 41 41 40 39 39 38 39 40 41 41 41 41 40 39 38 37 38 38 39 40 40 40 40 41 41 42 42 43 43 44 44
42 43 44 44 43 42 43 42 42 42 42 42 43 43 43 42 41 41 41 42 43 43 43 42 42 40 39 38 38 38 39 39 40 40 40 40 40 41 41 41 42 43 44
44 45 46 46 46 45 46 46 45 45 44 44 46 46 45 44 43 43 44 44 45 45 45 44 44 42 41 40 39 39 39 39 40 40 40 40 40 40 40 41 41 42 43
45 46 48 49 48 48 48 49 48 48 47 47 48 49 48 46 46 46 47 46 46 47 47 46 46 45 43 42 41 41 41 41 41 41 41 41 41 41 41 41 41 41 42
48 49 49 50 51 50 51 51 51 50 50 50 51 52 52 51 50 49 49 49 49 49 49 49 48 47 46 45 44 43 43 43 43 43 43 43 43 43 43 43 42 42 43
53 53 53 53 54 54 54 54 53 52 53 53 53 54 55 55 53 53 52 52 53 52 52 51 50 50 49 48 47 46 45 45 45 45 45 45 45 45 45 45 45 45 45
58 58 58 58 58 58 58 58 57 56 56 56 56 57 57 57 57 56 56 55 55 56 55 55 54 53 52 50 50 49 48 48 48 48 48 48 48 48 47 47 47 47 47
64 64 64 64 64 64 64 64 63 62 62 62 61 61 60 60 60 60 59 58 58 58 58 58 58 57 55 54 53 52 51 51 51 51 51 51 51 50 50 50 50 49 48
68 68 68 68 69 69 69 69 69 69 68 68 67 66 65 64 64 64 63 62 61 61 61 61 62 61 60 58 57 56 55 54 54 54 53 53 53 53 52 52 51 50 49
71 71 71 71 72 73 73 73 73 74 73 73 72 72 71 69 68 67 67 66 65 65 64 64 65 66 65 63 61 60 58 57 56 55 55 55 54 54 54 53 52 52 51
74 74 74 74 74 75 76 77 77 77 77 77 76 76 76 75 73 71 70 70 69 69 67 67 68 69 69 68 65 63 61 59 58 57 56 55 55 56 55 55 54 53 52
76 76 76 77 77 78 78 79 79 80 79 79 79 78 78 78 77 75 73 73 72 72 71 71 71 72 72 71 69 66 64 61 59 58 57 56 56 56 56 56 55 54 53
79 79 79 80 80 80 81 81 82 82 82 81 80 80 79 79 79 78 76 75 74 73 74 74 73 73 74 73 72 70 66 63 60 58 57 57 56 56 56 56 55 55 53
82 82 83 83 83 84 84 84 84 85 85 85 84 83 81 81 80 79 78 76 75 75 76 77 76 75 75 76 75 72 70 65 61 60 59 59 58 57 57 56 55 55 54
87 87 87 86 86 86 86 87 88 88 88 88 87 86 85 83 82 81 80 78 77 78 79 79 79 78 77 78 77 74 70 66 64 63 62 60 59 58 58 57 56 56 55
95 94 93 91 90 89 88 89 90 91 91 91 90 89 88 87 85 84 83 81 80 80 81 81 81 81 80 80 79 75 72 69 67 65 62 59 59 59 58 58 57 57 56
101 100 99 98 96 94 93 93 93 93 93 93 93 92 91 90 89 87 86 85 84 83 82 83 83 83 82 81 80 78 76 74 69 64 62 61 60 59 58 58 58 58 59
105 105 104 104 103 102 101 100 100 99 98 96 96 96 95 94 92 91 90 89 88 85 85 85 86 85 84 84 83 81 79 76 70 67 65 62 61 60 59 58 59 59 60
107 108 108 107 107 106 106 106 106 106 105 102 100 100 99 98 96 95 93 92 90 88 87 87 86 86 87 87 86 84 81 79 76 71 67 64 62 61 61 61 61 61 61
101 103 105 105 106 105 104 104 106 108 109 108 106 104 103 101 100 100 99 96 93 90 89 88 87 87 89 90 89 88 85 83 78 73 69 67 65 65 65 64 63 62 62
94 95 96 97 98 99 97 98 99 103 106 106 107 106 106 104 103 103 103 101 98 94 92 91 90 89 89 89 89 87 86 85 81 76 72 71 69 69 69 67 66 65 64
Wind_Direction
268 268 268 269 270 270 269 269 268 267 267 267 266 265 265 265 266 267 267 267 266 266 265 265 264 264 264 263 263 263 263 263 263 263 263 263 261 258 255 252 249 250 252
270 269 269 269 269 268 268 268 268 268 268 268 268 267 267 267 268 269 269 270 269 269 268 268 268 267 267 266 266 265 264 264 264 264 264 263 262 260 258 255 252 251 252
267 268 268 268 268 268 267 267 267 267 267 267 267 268 268 268 269 269 270 270 270 270 270 270 270 270 270 270 269 267 266 265 265 265 264 264 263 261 259 257 255 254 253
264 264 265 266 267 268 268 268 267 267 267 267 267 266 266 267 267 268 269 269 269 270 270 270 271 272 272 272 271 270 269 267 266 266 265 264 264 262 260 259 258 256 256
262 261 261 263 265 267 268 269 268 267 266 266 266 266 266 266 266 266 267 268 268 269 269 269 270 270 271 272 271 270 269 268 267 266 266 265 264 263 262 261 259 258 258
261 260 260 261 263 266 267 268 268 267 266 267 267 266 266 265 265 266 266 267 268 268 268 268 269 270 271 271 270 269 268 267 266 266 265 265 264 263 262 261 260 259 259
260 261 261 261 262 264 265 265 266 266 267 267 267 267 266 266 267 268 268 268 268 268 268 268 269 270 271 271 270 269 268 267 266 266 265 265 264 263 262 262 261 260 261
263 262 261 261 261 261 262 264 265 266 266 267 267 267 268 268 269 269 269 269 270 269 269 268 268 269 270 271 271 270 269 267 266 265 265 264 264 263 262 262 262 261 262
265 263 263 263 262 262 262 264 265 267 267 266 267 268 269 270 269 269 269 269 269 269 269 269 268 268 269 271 271 271 270 268 266 266 265 264 263 263 262 261 261 261 261
265 264 264 264 264 263 263 264 265 266 267 268 268 268 269 268 268 268 268 269 269 269 268 268 267 267 268 269 270 270 270 269 268 266 265 264 264 263 262 262 262 262 262
265 265 264 264 265 264 264 264 264 265 266 266 267 268 268 269 270 270 269 269 268 267 267 267 267 267 266 267 267 268 269 269 269 267 266 265 264 263 263 263 262 262 263
263 263 263 263 263 263 263 263 263 263 264 265 266 267 268 270 270 270 270 269 268 268 268 267 267 266 266 265 265 266 267 267 268 267 266 265 264 263 263 263 262 262 263
264 263 262 262 261 261 261 262 262 262 262 263 264 265 266 267 269 270 270 270 269 269 268 268 267 266 265 264 264 265 265 266 266 266 265 264 264 263 263 262 262 262 262
264 263 262 261 260 260 260 260 260 261 261 262 262 263 263 264 266 267 268 268 268 268 268 268 267 266 265 265 264 264 264 264 264 264 264 263 263 262 262 262 261 261 262
264 263 262 261 260 259 259 258 259 259 260 260 261 262 262 262 263 264 265 266 267 267 266 266 266 266 266 265 265 264 264 264 263 263 262 262 262 261 261 260 260 260 260
265 264 263 262 261 260 259 259 259 259 259 259 260 261 261 262 262 262 262 263 263 264 264 263 264 265 266 266 265 265 264 264 263 262 261 261 261 260 260 259 259 259 259
264 264 264 264 263 262 261 260 259 259 259 259 259 260 260 261 261 262 261 261 261 261 261 261 261 262 264 265 265 264 264 264 263 263 262 261 261 260 259 259 259 259 258
263 264 264 264 264 264 263 262 261 260 260 259 260 260 260 260 260 261 261 260 259 259 259 258 258 259 261 262 263 263 263 263 263 263 263 262 261 260 260 259 259 258 258
267 266 266 265 265 265 264 263 262 262 261 261 260 260 260 260 260 260 260 259 258 257 256 256 255 256 257 260 261 262 262 262 262 263 263 263 262 261 260 259 259 258 258
270 270 269 268 267 266 265 264 263 262 262 261 261 261 260 260 260 260 259 258 257 256 255 254 253 253 254 256 258 260 261 261 261 263 263 263 262 261 260 259 258 258 258
273 272 271 271 269 268 266 265 264 263 262 261 260 260 260 260 260 259 259 258 257 255 254 253 252 251 252 254 257 258 258 259 261 263 263 263 261 260 259 258 258 258 258
274 273 272 271 270 268 267 266 264 263 261 260 260 259 259 258 258 258 258 257 256 255 254 252 250 250 251 252 254 255 256 258 260 261 262 261 260 259 259 258 258 258 258
273 273 272 271 270 269 268 267 265 263 261 260 259 258 258 257 257 256 256 256 255 255 254 252 250 250 249 250 251 253 255 257 258 259 259 260 260 259 259 259 258 258 258
275 274 273 272 271 269 269 268 266 264 262 260 259 258 257 256 256 255 254 254 254 253 252 251 251 249 248 248 249 251 253 255 256 258 260 261 260 260 260 259 259 259 259
275 274 274 273 271 270 268 267 266 265 263 261 259 257 256 255 255 255 254 253 252 251 251 250 250 248 247 248 250 251 253 256 258 259 260 261 260 260 260 260 259 259 260
276 275 274 273 271 270 268 266 265 264 262 261 259 257 256 254 253 253 253 252 251 250 250 249 249 249 249 249 250 251 254 255 257 259 259 260 260 260 261 260 259 260 260
Height
5828 5828 5828 5828 5829 5830 5831 5832 5833 5833 5834 5835 5836 5837 5839 5839 5840 5841 5841 5842 5843 5844 5845 5846 5847 5848 5849 5850 5851 5851 5852 5852 5853 5854 5855 5856 5857 5858 5859 5860 5860 5861 5862
5820 5820 5821 5821 5822 5822 5823 5824 5825 5826 5826 5827 5829 5830 5831 5832 5832 5833 5834 5835 5836 5836 5837 5838 5839 5840 5841 5842 5843 5844 5844 5845 5845 5846 5847 5848 5849 5850 5851 5852 5853 5854 5855
5812 5812 5813 5813 5813 5814 5815 5815 5816 5817 5818 5819 5820 5821 5822 5823 5824 5825 5826 5826 5827 5828 5829 5830 5831 5831 5832 5833 5834 5835 5836 5837 5838 5838 5839 5840 5841 5842 5843 5844 5845 5846 5847
5804 5804 5804 5804 5804 5805 5806 5807 5808 5808 5809 5810 5811 5812 5813 5815 5815 5816 5817 5818 5819 5820 5821 5822 5823 5823 5824 5825 5826 5827 5827 5828 5829 5829 5830 5831 5832 5833 5834 5835 5836 5837 5839
5794 5795 5795 5795 5795 5796 5797 5798 5799 5799 5800 5801 5802 5803 5804 5805 5806 5807 5808 5809 5810 5811 5812 5813 5814 5815 5816 5816 5817 5818 5818 5819 5819 5820 5821 5822 5823 5824 5825 5826 5827 5828 5830
5785 5785 5785 5786 5786 5787 5787 5788 5788 5789 5790 5791 5792 5793 5795 5796 5796 5798 5798 5799 5800 5801 5802 5803 5805 5806 5807 5807 5808 5808 5809 5809 5810 5811 5812 5812 5813 5814 5815 5817 5818 5819 5820
5775 5774 5775 5776 5776 5777 5777 5777 5778 5779 5780 5781 5781 5782 5784 5785 5787 5788 5788 5788 5789 5790 5792 5793 5794 5796 5797 5797 5798 5798 5799 5799 5800 5801 5802 5802 5803 5804 5805 5806 5808 5809 5810
5764 5764 5764 5764 5765 5766 5766 5767 5767 5768 5769 5771 5771 5770 5772 5775 5777 5777 5777 5778 5779 5779 5781 5782 5783 5785 5786 5787 5787 5788 5789 5789 5790 5790 5791 5792 5793 5794 5795 5796 5797 5799 5800
5753 5753 5752 5752 5753 5754 5755 5755 5756 5757 5758 5760 5759 5760 5761 5764 5765 5766 5766 5767 5768 5769 5769 5770 5771 5773 5775 5775 5776 5777 5778 5779 5779 5780 5781 5782 5783 5784 5785 5786 5787 5788 5789
5740 5740 5740 5740 5740 5742 5742 5742 5743 5745 5745 5747 5747 5748 5749 5751 5753 5754 5755 5756 5756 5757 5758 5758 5760 5761 5763 5764 5765 5766 5767 5768 5769 5770 5771 5772 5773 5774 5775 5776 5776 5777 5778
5727 5727 5727 5727 5727 5728 5728 5728 5729 5730 5731 5732 5733 5734 5734 5736 5739 5741 5742 5744 5744 5745 5745 5746 5748 5749 5751 5752 5753 5754 5755 5756 5757 5758 5759 5761 5762 5763 5764 5765 5765 5766 5767
5713 5713 5713 5713 5713 5713 5713 5713 5714 5715 5716 5717 5718 5719 5720 5721 5723 5726 5727 5729 5730 5731 5733 5734 5735 5736 5738 5739 5740 5741 5743 5744 5745 5746 5747 5748 5750 5751 5752 5753 5754 5754 5755
5696 5696 5696 5696 5697 5697 5697 5697 5698 5699 5699 5700 5702 5703 5705 5706 5707 5708 5710 5713 5716 5717 5718 5720 5721 5722 5724 5725 5726 5728 5729 5730 5732 5733 5734 5735 5736 5738 5739 5740 5741 5742 5743
5676 5676 5677 5677 5678 5678 5679 5680 5681 5681 5682 5683 5684 5685 5688 5689 5690 5691 5693 5695 5698 5701 5703 5705 5706 5707 5709 5710 5712 5714 5715 5717 5718 5719 5721 5722 5723 5724 5725 5726 5728 5729 5730
5655 5655 5656 5657 5657 5657 5658 5659 5661 5662 5663 5664 5665 5666 5669 5671 5672 5673 5674 5677 5680 5682 5687 5689 5690 5691 5692 5695 5697 5699 5701 5702 5704 5705 5706 5708 5709 5710 5711 5712 5714 5716 5717
5633 5633 5633 5634 5635 5635 5636 5637 5639 5640 5642 5644 5645 5647 5649 5651 5653 5655 5656 5658 5660 5663 5667 5672 5673 5674 5676 5678 5681 5683 5685 5687 5689 5690 5692 5693 5695 5696 5697 5698 5700 5701 5703
5612 5611 5611 5611 5612 5612 5613 5614 5615 5617 5619 5622 5623 5625 5628 5629 5632 5635 5636 5638 5640 5643 5646 5651 5655 5656 5658 5661 5664 5666 5669 5671 5673 5675 5677 5678 5680 5681 5683 5684 5686 5687 5689
5589 5589 5589 5589 5589 5589 5589 5590 5591 5592 5595 5598 5600 5603 5606 5607 5610 5613 5615 5618 5620 5622 5624 5629 5635 5638 5640 5642 5645 5649 5652 5654 5656 5659 5661 5663 5664 5666 5668 5669 5671 5672 5674
5565 5565 5565 5565 5565 5565 5565 5565 5567 5568 5570 5573 5575 5579 5583 5584 5588 5590 5593 5597 5599 5600 5602 5607 5613 5618 5621 5623 5626 5630 5634 5637 5639 5641 5644 5646 5648 5650 5652 5654 5656 5657 5659
5539 5539 5539 5539 5540 5540 5540 5540 5542 5543 5545 5548 5550 5554 5558 5560 5564 5566 5570 5574 5576 5577 5579 5584 5591 5597 5601 5603 5606 5611 5616 5619 5620 5622 5626 5629 5631 5633 5635 5637 5640 5641 5643
5510 5511 5511 5512 5513 5513 5514 5514 5515 5517 5519 5522 5525 5528 5532 5535 5539 5542 5546 5550 5551 5554 5556 5561 5568 5574 5580 5583 5589 5594 5596 5597 5600 5605 5608 5611 5613 5615 5617 5620 5622 5624 5626
5479 5480 5480 5481 5483 5484 5484 5485 5485 5488 5491 5494 5498 5501 5505 5509 5513 5516 5520 5524 5527 5530 5535 5538 5544 5551 5559 5565 5569 5571 5574 5576 5583 5588 5588 5592 5594 5597 5600 5602 5604 5606 5608
5447 5447 5448 5448 5450 5453 5452 5453 5453 5454 5459 5464 5469 5473 5477 5482 5486 5490 5493 5497 5502 5507 5512 5517 5520 5530 5537 5544 5547 5549 5552 5556 5563 5567 5568 5573 5576 5579 5581 5583 5586 5588 5590
5411 5411 5412 5413 5414 5419 5419 5417 5417 5417 5423 5430 5436 5441 5446 5453 5457 5461 5465 5469 5477 5484 5491 5494 5501 5509 5511 5517 5522 5527 5530 5533 5539 5546 5551 5555 5558 5560 5561 5563 5566 5568 5570
5377 5376 5375 5376 5376 5381 5384 5381 5379 5378 5383 5393 5401 5407 5413 5421 5429 5430 5434 5442 5450 5459 5464 5469 5476 5481 5485 5492 5499 5503 5507 5511 5518 5527 5532 5535 5538 5539 5540 5543 5546 5548 5550
5344 5343 5341 5342 5340 5342 5347 5345 5343 5339 5344 5354 5362 5369 5378 5386 5394 5396 5400 5410 5421 5432 5437 5442 5449 5455 5461 5467 5474 5482 5487 5490 5496 5504 5512 5513 5517 5518 5519 5523 5525 5527 5529